GLO2005 SBEG-SBGL

Flight info

Callsign GLO2005
Flight time 3h 43m
Altitude 37000
Route GIKVI UZ6 MULUV UZ24 MAVGU
Aircraft B738/M-SDFGIKLORWXY/LB1

Departure

Time 2026-04-28 17:28
Airport Eduardo Gomes International Airport (SBEG)

Arrival

Time 2026-04-28 21:12
Airport Rio Galeão – Tom Jobim International Airport (SBGL)
Time Latitude Longitude Altitude Speed Heading
2026-04-28 17:11 -3.03272 -60.04581 269 ft 0 kts 358°
2026-04-28 17:21 -3.03282 -60.04581 269 ft 4 kts 356°
2026-04-28 17:21 -3.03309 -60.04577 269 ft 4 kts 346°
2026-04-28 17:21 -3.03334 -60.04569 269 ft 4 kts 329°
2026-04-28 17:22 -3.03352 -60.04541 269 ft 1 kts 265°
2026-04-28 17:22 -3.03352 -60.04540 269 ft 0 kts 265°
2026-04-28 17:23 -3.03353 -60.04552 269 ft 4 kts 265°
2026-04-28 17:24 -3.03356 -60.04599 269 ft 9 kts 270°
2026-04-28 17:24 -3.03353 -60.04681 269 ft 14 kts 270°
2026-04-28 17:24 -3.03382 -60.04787 269 ft 18 kts 240°
2026-04-28 17:24 -3.03475 -60.04885 269 ft 21 kts 216°
2026-04-28 17:25 -3.03576 -60.05002 269 ft 24 kts 246°
2026-04-28 17:25 -3.03662 -60.05314 269 ft 23 kts 256°
2026-04-28 17:25 -3.03688 -60.05466 269 ft 22 kts 265°
2026-04-28 17:26 -3.03691 -60.05616 269 ft 21 kts 270°
2026-04-28 17:26 -3.03690 -60.05762 269 ft 21 kts 270°
2026-04-28 17:26 -3.03690 -60.05904 269 ft 20 kts 270°
2026-04-28 17:26 -3.03689 -60.06041 269 ft 19 kts 270°
2026-04-28 17:27 -3.03733 -60.06159 269 ft 19 kts 213°
2026-04-28 17:27 -3.03850 -60.06145 270 ft 18 kts 123°
2026-04-28 17:27 -3.03858 -60.05980 270 ft 48 kts 90°
2026-04-28 17:27 -3.03859 -60.05397 268 ft 118 kts 90°
2026-04-28 17:28 -3.03867 -60.04378 287 ft 173 kts 91°
2026-04-28 17:28 -3.03898 -60.01878 1822 ft 177 kts 92°
2026-04-28 17:28 -3.04045 -60.00626 2466 ft 196 kts 115°
2026-04-28 17:29 -3.05027 -59.99595 2756 ft 220 kts 148°
2026-04-28 17:29 -3.06398 -59.98736 2985 ft 246 kts 149°
2026-04-28 17:29 -3.07913 -59.97792 3502 ft 263 kts 149°
2026-04-28 17:30 -3.11028 -59.95812 5276 ft 269 kts 147°
2026-04-28 17:30 -3.14186 -59.93742 6988 ft 276 kts 147°
2026-04-28 17:30 -3.15797 -59.92678 7785 ft 279 kts 147°
2026-04-28 17:31 -3.17426 -59.91598 8573 ft 283 kts 147°
2026-04-28 17:31 -3.20744 -59.89389 10130 ft 290 kts 147°
2026-04-28 17:32 -3.24323 -59.87003 10728 ft 332 kts 147°
2026-04-28 17:32 -3.26295 -59.85686 11171 ft 345 kts 147°
2026-04-28 17:32 -3.28303 -59.84344 11849 ft 350 kts 147°
2026-04-28 17:32 -3.30336 -59.82985 12589 ft 352 kts 147°
2026-04-28 17:33 -3.32379 -59.81619 13291 ft 356 kts 147°
2026-04-28 17:33 -3.34453 -59.80233 13968 ft 360 kts 147°
2026-04-28 17:33 -3.36541 -59.78837 14640 ft 363 kts 147°
2026-04-28 17:33 -3.37251 -59.78362 14859 ft 364 kts 147°
2026-04-28 17:34 -3.40785 -59.75999 15938 ft 370 kts 147°
2026-04-28 17:34 -3.42934 -59.74562 16562 ft 374 kts 147°
2026-04-28 17:34 -3.45108 -59.73109 17171 ft 377 kts 147°
2026-04-28 17:34 -3.47297 -59.71644 17766 ft 381 kts 147°
2026-04-28 17:35 -3.49508 -59.70165 18350 ft 384 kts 147°
2026-04-28 17:35 -3.51742 -59.68672 18916 ft 387 kts 147°
2026-04-28 17:35 -3.53971 -59.67135 19465 ft 391 kts 143°
2026-04-28 17:35 -3.56079 -59.65393 20004 ft 394 kts 139°
2026-04-28 17:36 -3.58116 -59.63539 20532 ft 397 kts 137°
2026-04-28 17:36 -3.60146 -59.61635 21044 ft 401 kts 137°
2026-04-28 17:36 -3.62181 -59.59727 21537 ft 404 kts 137°
2026-04-28 17:36 -3.64256 -59.57798 22018 ft 407 kts 137°
2026-04-28 17:37 -3.66342 -59.55879 22482 ft 410 kts 138°
2026-04-28 17:37 -3.68432 -59.53972 22931 ft 413 kts 138°
2026-04-28 17:37 -3.70563 -59.52037 23372 ft 415 kts 138°
2026-04-28 17:37 -3.72711 -59.50093 23811 ft 418 kts 138°
2026-04-28 17:38 -3.74882 -59.48130 24240 ft 421 kts 138°
2026-04-28 17:38 -3.77061 -59.46162 24641 ft 424 kts 138°
2026-04-28 17:38 -3.79254 -59.44181 25043 ft 426 kts 138°
2026-04-28 17:38 -3.81462 -59.42186 25433 ft 429 kts 138°
2026-04-28 17:39 -3.83686 -59.40177 25810 ft 431 kts 138°
2026-04-28 17:39 -3.85922 -59.38156 26173 ft 434 kts 138°
2026-04-28 17:39 -3.90430 -59.34081 26873 ft 439 kts 138°
2026-04-28 17:40 -3.92706 -59.32023 27201 ft 441 kts 138°
2026-04-28 17:40 -3.94984 -59.29964 27525 ft 443 kts 138°
2026-04-28 17:40 -3.97280 -59.27888 27845 ft 445 kts 138°
2026-04-28 17:40 -3.99585 -59.25803 28149 ft 448 kts 138°
2026-04-28 17:41 -4.01899 -59.23711 28451 ft 450 kts 138°
2026-04-28 17:41 -4.03437 -59.22320 28651 ft 451 kts 138°
2026-04-28 17:41 -4.06566 -59.19489 29029 ft 454 kts 138°
2026-04-28 17:41 -4.08886 -59.17391 29304 ft 456 kts 138°
2026-04-28 17:42 -4.10483 -59.15946 29490 ft 457 kts 138°
2026-04-28 17:42 -4.12850 -59.13805 29754 ft 459 kts 138°
2026-04-28 17:42 -4.15996 -59.10959 30094 ft 461 kts 138°
2026-04-28 17:42 -4.17576 -59.09529 30256 ft 463 kts 138°
2026-04-28 17:43 -4.19969 -59.07363 30550 ft 463 kts 138°
2026-04-28 17:43 -4.22358 -59.05200 30916 ft 462 kts 138°
2026-04-28 17:43 -4.24736 -59.03048 31286 ft 460 kts 138°
2026-04-28 17:43 -4.27107 -59.00902 31616 ft 459 kts 138°
2026-04-28 17:44 -4.29472 -58.98761 31898 ft 459 kts 138°
2026-04-28 17:44 -4.31848 -58.96610 32191 ft 459 kts 138°
2026-04-28 17:44 -4.34214 -58.94468 32512 ft 458 kts 138°
2026-04-28 17:44 -4.36572 -58.92332 32817 ft 457 kts 138°
2026-04-28 17:45 -4.38940 -58.90187 33093 ft 457 kts 138°
2026-04-28 17:45 -4.41294 -58.88055 33362 ft 456 kts 138°
2026-04-28 17:45 -4.43622 -58.85947 33640 ft 456 kts 138°
2026-04-28 17:45 -4.46003 -58.83790 33917 ft 455 kts 138°
2026-04-28 17:46 -4.48347 -58.81666 34168 ft 455 kts 138°
2026-04-28 17:46 -4.50692 -58.79540 34418 ft 454 kts 138°
2026-04-28 17:46 -4.53032 -58.77420 34673 ft 454 kts 138°
2026-04-28 17:46 -4.55348 -58.75322 34914 ft 453 kts 138°
2026-04-28 17:47 -4.57687 -58.73201 35142 ft 453 kts 138°
2026-04-28 17:47 -4.60015 -58.71087 35373 ft 452 kts 138°
2026-04-28 17:47 -4.62355 -58.68961 35600 ft 452 kts 138°
2026-04-28 17:47 -4.63925 -58.67533 35746 ft 452 kts 138°
2026-04-28 17:48 -4.67009 -58.64729 36020 ft 451 kts 138°
2026-04-28 17:48 -4.69330 -58.62619 36222 ft 451 kts 138°
2026-04-28 17:48 -4.71649 -58.60510 36407 ft 451 kts 138°
2026-04-28 17:48 -4.73977 -58.58393 36570 ft 451 kts 138°
2026-04-28 17:49 -4.76304 -58.56277 36747 ft 451 kts 138°
2026-04-28 17:49 -4.78629 -58.54162 36923 ft 451 kts 138°
2026-04-28 17:49 -4.80952 -58.52050 36997 ft 453 kts 138°
2026-04-28 17:50 -4.85598 -58.47823 36999 ft 453 kts 138°
2026-04-28 17:50 -4.90273 -58.43569 36994 ft 450 kts 138°
2026-04-28 17:51 -4.94867 -58.39388 36997 ft 447 kts 138°
2026-04-28 17:51 -4.99459 -58.35208 37000 ft 445 kts 138°
2026-04-28 17:52 -5.04044 -58.31034 37002 ft 444 kts 138°
2026-04-28 17:52 -5.10917 -58.24774 37005 ft 445 kts 138°
2026-04-28 17:53 -5.15508 -58.20591 37006 ft 447 kts 138°
2026-04-28 17:53 -5.20101 -58.16406 37007 ft 449 kts 138°
2026-04-28 17:54 -5.24753 -58.12179 37005 ft 451 kts 138°
2026-04-28 17:54 -5.29437 -58.07968 37004 ft 453 kts 138°
2026-04-28 17:55 -5.34140 -58.03743 37002 ft 455 kts 138°
2026-04-28 17:55 -5.38857 -57.99499 37000 ft 455 kts 138°
2026-04-28 17:56 -5.43571 -57.95254 37000 ft 455 kts 138°
2026-04-28 17:56 -5.48287 -57.91003 36999 ft 455 kts 138°
2026-04-28 17:57 -5.52995 -57.86761 37000 ft 454 kts 138°
2026-04-28 17:57 -5.57684 -57.82533 37000 ft 452 kts 138°
2026-04-28 17:58 -5.62335 -57.78340 37000 ft 451 kts 138°
2026-04-28 17:58 -5.67003 -57.74129 37000 ft 450 kts 138°
2026-04-28 17:59 -5.71655 -57.69933 37001 ft 449 kts 138°
2026-04-28 17:59 -5.76300 -57.65742 37001 ft 448 kts 138°
2026-04-28 18:00 -5.80941 -57.61553 37003 ft 448 kts 138°
2026-04-28 18:00 -5.85583 -57.57363 37001 ft 448 kts 138°
2026-04-28 18:01 -5.90213 -57.53183 37002 ft 448 kts 138°
2026-04-28 18:01 -5.94850 -57.48995 37002 ft 449 kts 138°
2026-04-28 18:02 -5.99469 -57.44822 37002 ft 449 kts 138°
2026-04-28 18:02 -6.04122 -57.40619 37002 ft 450 kts 138°
2026-04-28 18:03 -6.08787 -57.36403 37001 ft 451 kts 138°
2026-04-28 18:03 -6.13448 -57.32189 37003 ft 451 kts 138°
2026-04-28 18:04 -6.18120 -57.27964 37002 ft 452 kts 138°
2026-04-28 18:04 -6.22802 -57.23730 37001 ft 452 kts 138°
2026-04-28 18:05 -6.26699 -57.20204 37002 ft 453 kts 138°
2026-04-28 18:05 -6.32136 -57.15284 37001 ft 453 kts 138°
2026-04-28 18:06 -6.36814 -57.11050 37001 ft 452 kts 138°
2026-04-28 18:06 -6.41494 -57.06813 37001 ft 452 kts 138°
2026-04-28 18:07 -6.46168 -57.02580 37000 ft 452 kts 138°
2026-04-28 18:07 -6.50835 -56.98353 37003 ft 451 kts 138°
2026-04-28 18:08 -6.55498 -56.94128 37000 ft 451 kts 138°
2026-04-28 18:08 -6.60158 -56.89905 37001 ft 450 kts 138°
2026-04-28 18:09 -6.64808 -56.85689 37001 ft 450 kts 138°
2026-04-28 18:09 -6.69432 -56.81496 37001 ft 450 kts 138°
2026-04-28 18:10 -6.74082 -56.77279 37002 ft 450 kts 138°
2026-04-28 18:10 -6.78727 -56.73064 37002 ft 450 kts 138°
2026-04-28 18:11 -6.83369 -56.68851 37004 ft 450 kts 138°
2026-04-28 18:11 -6.88012 -56.64637 37003 ft 450 kts 138°
2026-04-28 18:12 -6.92663 -56.60414 37000 ft 450 kts 138°
2026-04-28 18:12 -6.97313 -56.56189 37001 ft 450 kts 138°
2026-04-28 18:13 -7.01963 -56.51965 37002 ft 450 kts 138°
2026-04-28 18:13 -7.06614 -56.47738 37001 ft 450 kts 138°
2026-04-28 18:14 -7.11264 -56.43511 37002 ft 451 kts 138°
2026-04-28 18:14 -7.15925 -56.39272 37002 ft 451 kts 138°
2026-04-28 18:15 -7.20545 -56.35069 37001 ft 451 kts 138°
2026-04-28 18:15 -7.25202 -56.30831 37002 ft 451 kts 138°
2026-04-28 18:16 -7.29858 -56.26594 37001 ft 451 kts 138°
2026-04-28 18:16 -7.34521 -56.22348 37001 ft 451 kts 138°
2026-04-28 18:17 -7.39170 -56.18112 37001 ft 451 kts 138°
2026-04-28 18:17 -7.43831 -56.13862 37002 ft 451 kts 138°
2026-04-28 18:18 -7.48475 -56.09627 37000 ft 451 kts 138°
2026-04-28 18:18 -7.52326 -56.06114 37002 ft 451 kts 138°
2026-04-28 18:19 -7.57750 -56.01165 37000 ft 451 kts 138°
2026-04-28 18:19 -7.62401 -55.96919 37002 ft 451 kts 138°
2026-04-28 18:20 -7.67045 -55.92678 37002 ft 451 kts 138°
2026-04-28 18:20 -7.71689 -55.88437 37001 ft 450 kts 138°
2026-04-28 18:21 -7.76342 -55.84186 37001 ft 450 kts 138°
2026-04-28 18:21 -7.80986 -55.79942 37001 ft 450 kts 138°
2026-04-28 18:22 -7.85607 -55.75716 36998 ft 451 kts 138°
2026-04-28 18:22 -7.90253 -55.71468 37002 ft 450 kts 138°
2026-04-28 18:23 -7.92573 -55.69347 35432 ft 450 kts 137°
2026-04-28 18:23 -7.94876 -55.67240 35691 ft 443 kts 136°
2026-04-28 18:23 -7.97151 -55.65159 35910 ft 440 kts 136°
2026-04-28 18:23 -7.99413 -55.63089 36142 ft 438 kts 136°
2026-04-28 18:24 -8.01664 -55.61028 36377 ft 436 kts 136°
2026-04-28 18:24 -8.03152 -55.59666 36536 ft 435 kts 136°
2026-04-28 18:24 -8.06150 -55.56920 36740 ft 435 kts 136°
2026-04-28 18:24 -8.08399 -55.54861 36817 ft 437 kts 136°
2026-04-28 18:25 -8.12920 -55.50719 36901 ft 442 kts 136°
2026-04-28 18:26 -8.19805 -55.44409 36910 ft 451 kts 136°
2026-04-28 18:26 -8.24478 -55.40126 36913 ft 456 kts 136°
2026-04-28 18:27 -8.29188 -55.35807 36905 ft 456 kts 136°
2026-04-28 18:27 -8.33841 -55.31540 36896 ft 447 kts 136°
2026-04-28 18:28 -8.38437 -55.27323 36910 ft 445 kts 136°
2026-04-28 18:28 -8.43021 -55.23115 36902 ft 445 kts 136°
2026-04-28 18:29 -8.47599 -55.18911 36910 ft 445 kts 136°
2026-04-28 18:29 -8.51408 -55.15412 36909 ft 445 kts 136°
2026-04-28 18:30 -8.56772 -55.10483 36909 ft 447 kts 136°
2026-04-28 18:30 -8.61350 -55.06275 36909 ft 448 kts 136°
2026-04-28 18:31 -8.65221 -55.02716 36911 ft 450 kts 136°
2026-04-28 18:31 -8.69824 -54.98482 36912 ft 451 kts 136°
2026-04-28 18:32 -8.74479 -54.94200 36913 ft 452 kts 136°
2026-04-28 18:32 -8.79126 -54.89923 36912 ft 452 kts 136°
2026-04-28 18:33 -8.83776 -54.85641 36911 ft 452 kts 136°
2026-04-28 18:33 -8.88428 -54.81356 36914 ft 452 kts 136°
2026-04-28 18:34 -8.93083 -54.77067 36918 ft 452 kts 136°
2026-04-28 18:34 -8.97730 -54.72783 36910 ft 451 kts 136°
2026-04-28 18:35 -9.02362 -54.68512 36917 ft 451 kts 136°
2026-04-28 18:35 -9.06996 -54.64237 36915 ft 450 kts 136°
2026-04-28 18:36 -9.11621 -54.59969 36911 ft 450 kts 136°
2026-04-28 18:36 -9.16216 -54.55726 36917 ft 449 kts 136°
2026-04-28 18:37 -9.20745 -54.51378 36909 ft 448 kts 134°
2026-04-28 18:37 -9.25155 -54.46914 36912 ft 448 kts 134°
2026-04-28 18:38 -9.29565 -54.42451 36910 ft 448 kts 134°
2026-04-28 18:38 -9.33988 -54.38007 36904 ft 448 kts 134°
2026-04-28 18:39 -9.38392 -54.33597 36910 ft 448 kts 134°
2026-04-28 18:39 -9.42819 -54.29163 36905 ft 448 kts 134°
2026-04-28 18:40 -9.47243 -54.24730 36907 ft 448 kts 134°
2026-04-28 18:40 -9.51675 -54.20287 36907 ft 448 kts 134°
2026-04-28 18:41 -9.56100 -54.15848 36903 ft 448 kts 134°
2026-04-28 18:41 -9.60531 -54.11402 36903 ft 448 kts 134°
2026-04-28 18:42 -9.64959 -54.06957 36903 ft 448 kts 134°
2026-04-28 18:42 -9.69398 -54.02499 36906 ft 449 kts 134°
2026-04-28 18:43 -9.73834 -53.98042 36903 ft 449 kts 134°
2026-04-28 18:43 -9.78272 -53.93582 36902 ft 450 kts 134°
2026-04-28 18:44 -9.82718 -53.89110 36905 ft 450 kts 134°
2026-04-28 18:44 -9.89401 -53.82449 36906 ft 451 kts 136°
2026-04-28 18:45 -9.94017 -53.78141 36912 ft 452 kts 137°
2026-04-28 18:45 -9.98667 -53.73832 36920 ft 452 kts 136°
2026-04-28 18:46 -10.03294 -53.69506 36902 ft 452 kts 136°
2026-04-28 18:46 -10.07911 -53.65170 36903 ft 452 kts 136°
2026-04-28 18:47 -10.12526 -53.60829 36901 ft 452 kts 136°
2026-04-28 18:47 -10.17113 -53.56514 36906 ft 451 kts 136°
2026-04-28 18:48 -10.21714 -53.52185 36902 ft 451 kts 136°
2026-04-28 18:48 -10.26310 -53.47858 36908 ft 450 kts 136°
2026-04-28 18:49 -10.30122 -53.44268 36903 ft 449 kts 136°
2026-04-28 18:49 -10.35486 -53.39216 36904 ft 449 kts 136°
2026-04-28 18:50 -10.40062 -53.34899 36904 ft 449 kts 136°
2026-04-28 18:50 -10.44633 -53.30579 36901 ft 449 kts 136°
2026-04-28 18:51 -10.49207 -53.26253 36908 ft 449 kts 136°
2026-04-28 18:51 -10.53758 -53.21948 36901 ft 450 kts 136°
2026-04-28 18:52 -10.58335 -53.17617 36904 ft 450 kts 136°
2026-04-28 18:52 -10.62929 -53.13267 36903 ft 451 kts 136°
2026-04-28 18:53 -10.67526 -53.08915 36904 ft 452 kts 136°
2026-04-28 18:53 -10.72125 -53.04557 36906 ft 452 kts 136°
2026-04-28 18:54 -10.76730 -53.00192 36906 ft 453 kts 136°
2026-04-28 18:54 -10.81345 -52.95814 36909 ft 453 kts 136°
2026-04-28 18:55 -10.85176 -52.92180 36907 ft 453 kts 136°
2026-04-28 18:55 -10.90565 -52.87065 36912 ft 453 kts 136°
2026-04-28 18:56 -10.95180 -52.82683 36908 ft 454 kts 136°
2026-04-28 18:56 -10.99759 -52.78332 36911 ft 453 kts 136°
2026-04-28 18:57 -11.04368 -52.73951 36908 ft 453 kts 136°
2026-04-28 18:57 -11.08979 -52.69566 36913 ft 453 kts 136°
2026-04-28 18:58 -11.13581 -52.65188 36911 ft 453 kts 136°
2026-04-28 18:58 -11.18185 -52.60807 36914 ft 453 kts 136°
2026-04-28 18:59 -11.22798 -52.56414 36915 ft 453 kts 136°
2026-04-28 18:59 -11.27410 -52.52021 36921 ft 453 kts 136°
2026-04-28 19:00 -11.32013 -52.47633 36916 ft 453 kts 136°
2026-04-28 19:00 -11.36594 -52.43265 36927 ft 453 kts 136°
2026-04-28 19:01 -11.41201 -52.38870 36918 ft 454 kts 136°
2026-04-28 19:01 -11.45807 -52.34473 36929 ft 453 kts 136°
2026-04-28 19:02 -11.50414 -52.30073 36920 ft 454 kts 136°
2026-04-28 19:02 -11.55055 -52.25702 36915 ft 454 kts 138°
2026-04-28 19:03 -11.59862 -52.21529 36924 ft 454 kts 139°
2026-04-28 19:03 -11.64709 -52.17387 36924 ft 454 kts 139°
2026-04-28 19:04 -11.69545 -52.13214 36923 ft 455 kts 139°
2026-04-28 19:04 -11.74354 -52.09032 36919 ft 455 kts 139°
2026-04-28 19:05 -11.79175 -52.04830 36920 ft 455 kts 139°
2026-04-28 19:05 -11.83957 -52.00660 36918 ft 455 kts 138°
2026-04-28 19:06 -11.87987 -51.97145 36930 ft 455 kts 138°
2026-04-28 19:06 -11.93588 -51.92259 36923 ft 456 kts 138°
2026-04-28 19:07 -11.98408 -51.88052 36922 ft 456 kts 138°
2026-04-28 19:07 -12.03232 -51.83839 36923 ft 456 kts 138°
2026-04-28 19:08 -12.08056 -51.79624 36921 ft 456 kts 138°
2026-04-28 19:08 -12.12879 -51.75408 36927 ft 457 kts 138°
2026-04-28 19:09 -12.17716 -51.71178 36920 ft 457 kts 138°
2026-04-28 19:09 -12.22431 -51.67052 36919 ft 458 kts 138°
2026-04-28 19:10 -12.27237 -51.62844 36919 ft 458 kts 138°
2026-04-28 19:10 -12.32085 -51.58598 36928 ft 459 kts 138°
2026-04-28 19:11 -12.36931 -51.54351 36914 ft 459 kts 138°
2026-04-28 19:11 -12.41783 -51.50096 36915 ft 459 kts 138°
2026-04-28 19:12 -12.46635 -51.45839 36915 ft 459 kts 139°
2026-04-28 19:12 -12.51478 -51.41587 36914 ft 459 kts 139°
2026-04-28 19:13 -12.56246 -51.37250 36915 ft 458 kts 136°
2026-04-28 19:13 -12.60876 -51.32782 36917 ft 457 kts 136°
2026-04-28 19:14 -12.65499 -51.28311 36911 ft 457 kts 136°
2026-04-28 19:14 -12.70138 -51.23859 36915 ft 456 kts 137°
2026-04-28 19:15 -12.74741 -51.19456 36912 ft 456 kts 137°
2026-04-28 19:15 -12.77843 -51.16491 36905 ft 455 kts 137°
2026-04-28 19:16 -12.84000 -51.10600 36911 ft 454 kts 137°
2026-04-28 19:16 -12.88623 -51.06174 36905 ft 454 kts 137°
2026-04-28 19:17 -12.93234 -51.01755 36904 ft 454 kts 137°
2026-04-28 19:17 -12.97846 -50.97335 36907 ft 454 kts 137°
2026-04-28 19:18 -13.01686 -50.93651 36906 ft 454 kts 137°
2026-04-28 19:18 -13.06302 -50.89222 36903 ft 455 kts 137°
2026-04-28 19:19 -13.10922 -50.84787 36903 ft 455 kts 137°
2026-04-28 19:19 -13.15551 -50.80340 36904 ft 455 kts 137°
2026-04-28 19:20 -13.20169 -50.75901 36904 ft 456 kts 137°
2026-04-28 19:20 -13.24800 -50.71447 36899 ft 456 kts 137°
2026-04-28 19:21 -13.29436 -50.66986 36900 ft 456 kts 137°
2026-04-28 19:21 -13.34069 -50.62527 36901 ft 457 kts 137°
2026-04-28 19:22 -13.37925 -50.58815 36900 ft 457 kts 137°
2026-04-28 19:22 -13.43311 -50.53626 36904 ft 457 kts 137°
2026-04-28 19:23 -13.47955 -50.49149 36904 ft 458 kts 137°
2026-04-28 19:23 -13.52597 -50.44670 36907 ft 458 kts 137°
2026-04-28 19:24 -13.57240 -50.40188 36904 ft 458 kts 137°
2026-04-28 19:24 -13.61878 -50.35708 36906 ft 458 kts 137°
2026-04-28 19:25 -13.66518 -50.31224 36904 ft 458 kts 137°
2026-04-28 19:25 -13.71158 -50.26737 36903 ft 458 kts 137°
2026-04-28 19:26 -13.75795 -50.22250 36903 ft 457 kts 137°
2026-04-28 19:26 -13.80428 -50.17765 36907 ft 457 kts 137°
2026-04-28 19:27 -13.85062 -50.13276 36906 ft 457 kts 137°
2026-04-28 19:27 -13.89700 -50.08781 36910 ft 458 kts 137°
2026-04-28 19:28 -13.94330 -50.04291 36907 ft 458 kts 137°
2026-04-28 19:28 -13.98944 -49.99814 36907 ft 458 kts 137°
2026-04-28 19:29 -14.02832 -49.96039 36908 ft 458 kts 137°
2026-04-28 19:29 -14.08229 -49.90797 36908 ft 459 kts 137°
2026-04-28 19:30 -14.12876 -49.86279 36912 ft 459 kts 137°
2026-04-28 19:30 -14.17527 -49.81756 36905 ft 459 kts 137°
2026-04-28 19:31 -14.22176 -49.77231 36914 ft 459 kts 137°
2026-04-28 19:31 -14.26793 -49.72735 36914 ft 459 kts 137°
2026-04-28 19:32 -14.31434 -49.68214 36918 ft 459 kts 137°
2026-04-28 19:32 -14.36077 -49.63687 36912 ft 459 kts 137°
2026-04-28 19:33 -14.40728 -49.59150 36918 ft 460 kts 137°
2026-04-28 19:33 -14.45372 -49.54617 36921 ft 460 kts 137°
2026-04-28 19:34 -14.50031 -49.50066 36921 ft 460 kts 137°
2026-04-28 19:34 -14.54681 -49.45522 36920 ft 461 kts 137°
2026-04-28 19:35 -14.59336 -49.40970 36920 ft 461 kts 137°
2026-04-28 19:35 -14.63998 -49.36408 36921 ft 462 kts 137°
2026-04-28 19:36 -14.68638 -49.31865 36922 ft 462 kts 137°
2026-04-28 19:36 -14.73302 -49.27296 36923 ft 462 kts 137°
2026-04-28 19:37 -14.77206 -49.23468 36923 ft 462 kts 137°
2026-04-28 19:37 -14.82627 -49.18151 36926 ft 462 kts 137°
2026-04-28 19:38 -14.87289 -49.13575 36925 ft 462 kts 137°
2026-04-28 19:38 -14.91933 -49.09014 36919 ft 461 kts 137°
2026-04-28 19:39 -14.96597 -49.04429 36929 ft 461 kts 137°
2026-04-28 19:39 -15.01212 -48.99890 36934 ft 461 kts 137°
2026-04-28 19:40 -15.05867 -48.95309 36934 ft 461 kts 137°
2026-04-28 19:40 -15.10497 -48.90722 36930 ft 461 kts 136°
2026-04-28 19:41 -15.15100 -48.86088 36937 ft 461 kts 136°
2026-04-28 19:41 -15.19697 -48.81448 36939 ft 462 kts 136°
2026-04-28 19:42 -15.24298 -48.76810 36945 ft 462 kts 136°
2026-04-28 19:42 -15.28124 -48.72954 36942 ft 462 kts 136°
2026-04-28 19:43 -15.33489 -48.67546 36953 ft 462 kts 136°
2026-04-28 19:43 -15.38105 -48.62890 36950 ft 463 kts 136°
2026-04-28 19:44 -15.42716 -48.58235 36957 ft 463 kts 136°
2026-04-28 19:44 -15.47326 -48.53578 36960 ft 463 kts 136°
2026-04-28 19:45 -15.51949 -48.48905 36966 ft 464 kts 136°
2026-04-28 19:45 -15.56561 -48.44240 36968 ft 464 kts 136°
2026-04-28 19:46 -15.61182 -48.39563 36968 ft 464 kts 136°
2026-04-28 19:46 -15.65804 -48.34881 36971 ft 464 kts 136°
2026-04-28 19:47 -15.70426 -48.30197 36975 ft 464 kts 136°
2026-04-28 19:47 -15.74988 -48.25570 36989 ft 464 kts 136°
2026-04-28 19:48 -15.79597 -48.20893 37022 ft 464 kts 136°
2026-04-28 19:48 -15.84210 -48.16208 37041 ft 463 kts 136°
2026-04-28 19:49 -15.88818 -48.11525 37065 ft 463 kts 136°
2026-04-28 19:49 -15.93428 -48.06837 37075 ft 463 kts 136°
2026-04-28 19:50 -16.00339 -47.99802 37069 ft 463 kts 136°
2026-04-28 19:51 -16.04933 -47.95123 37066 ft 463 kts 136°
2026-04-28 19:51 -16.09530 -47.90437 37049 ft 462 kts 136°
2026-04-28 19:52 -16.14131 -47.85744 37021 ft 462 kts 136°
2026-04-28 19:52 -16.18694 -47.81086 36996 ft 462 kts 136°
2026-04-28 19:53 -16.23283 -47.76398 36985 ft 462 kts 136°
2026-04-28 19:53 -16.27870 -47.71709 36993 ft 462 kts 136°
2026-04-28 19:54 -16.32464 -47.67009 36980 ft 462 kts 136°
2026-04-28 19:54 -16.37053 -47.62311 36994 ft 462 kts 136°
2026-04-28 19:55 -16.41641 -47.57610 36993 ft 462 kts 136°
2026-04-28 19:55 -16.46218 -47.52913 36995 ft 462 kts 136°
2026-04-28 19:56 -16.50785 -47.48203 36997 ft 462 kts 136°
2026-04-28 19:56 -16.55350 -47.43489 36990 ft 462 kts 136°
2026-04-28 19:57 -16.59909 -47.38780 36993 ft 461 kts 136°
2026-04-28 19:57 -16.64462 -47.34075 36987 ft 461 kts 136°
2026-04-28 19:58 -16.69024 -47.29357 36989 ft 461 kts 136°
2026-04-28 19:58 -16.73579 -47.24643 36989 ft 461 kts 136°
2026-04-28 19:59 -16.78093 -47.19966 36993 ft 461 kts 136°
2026-04-28 19:59 -16.82642 -47.15252 36987 ft 460 kts 136°
2026-04-28 20:00 -16.87213 -47.10568 36984 ft 460 kts 137°
2026-04-28 20:00 -16.91925 -47.06038 36985 ft 460 kts 138°
2026-04-28 20:01 -16.96641 -47.01534 36981 ft 460 kts 138°
2026-04-28 20:01 -17.01311 -46.97028 36977 ft 459 kts 138°
2026-04-28 20:02 -17.05998 -46.92484 36982 ft 459 kts 138°
2026-04-28 20:02 -17.10683 -46.87938 36980 ft 460 kts 138°
2026-04-28 20:03 -17.15369 -46.83393 36974 ft 459 kts 138°
2026-04-28 20:03 -17.20558 -46.79528 36982 ft 457 kts 150°
2026-04-28 20:04 -17.26091 -46.76211 36972 ft 458 kts 151°
2026-04-28 20:04 -17.30693 -46.73462 36964 ft 458 kts 151°
2026-04-28 20:05 -17.36211 -46.70114 36969 ft 459 kts 150°
2026-04-28 20:05 -17.41732 -46.66731 36965 ft 459 kts 150°
2026-04-28 20:06 -17.47250 -46.63339 36968 ft 459 kts 150°
2026-04-28 20:06 -17.52766 -46.59948 36969 ft 460 kts 150°
2026-04-28 20:07 -17.58289 -46.56551 36974 ft 460 kts 150°
2026-04-28 20:07 -17.63812 -46.53153 36975 ft 460 kts 151°
2026-04-28 20:08 -17.69303 -46.49771 36968 ft 461 kts 151°
2026-04-28 20:08 -17.74830 -46.46365 36963 ft 461 kts 151°
2026-04-28 20:09 -17.80358 -46.42956 36978 ft 461 kts 151°
2026-04-28 20:09 -17.85889 -46.39542 36980 ft 461 kts 151°
2026-04-28 20:10 -17.91417 -46.36128 36982 ft 461 kts 151°
2026-04-28 20:10 -17.96943 -46.32713 36992 ft 461 kts 151°
2026-04-28 20:11 -18.02472 -46.29293 36988 ft 461 kts 151°
2026-04-28 20:11 -18.07965 -46.25892 36987 ft 461 kts 151°
2026-04-28 20:12 -18.13494 -46.22467 36992 ft 460 kts 151°
2026-04-28 20:12 -18.19006 -46.19049 36993 ft 460 kts 151°
2026-04-28 20:13 -18.24524 -46.15625 37006 ft 460 kts 151°
2026-04-28 20:13 -18.30040 -46.12198 36997 ft 460 kts 151°
2026-04-28 20:14 -18.35541 -46.08775 37007 ft 460 kts 151°
2026-04-28 20:14 -18.41047 -46.05347 37001 ft 460 kts 151°
2026-04-28 20:15 -18.46550 -46.01918 37011 ft 460 kts 151°
2026-04-28 20:15 -18.52057 -45.98484 37004 ft 460 kts 151°
2026-04-28 20:16 -18.57532 -45.95068 37005 ft 460 kts 151°
2026-04-28 20:16 -18.63041 -45.91627 37007 ft 460 kts 151°
2026-04-28 20:17 -18.68554 -45.88182 37012 ft 461 kts 151°
2026-04-28 20:17 -18.74072 -45.84730 37009 ft 461 kts 151°
2026-04-28 20:18 -18.79587 -45.81277 37013 ft 461 kts 151°
2026-04-28 20:18 -18.85127 -45.77823 37006 ft 462 kts 152°
2026-04-28 20:19 -18.90700 -45.74436 37005 ft 462 kts 152°
2026-04-28 20:19 -18.96284 -45.71055 37004 ft 462 kts 152°
2026-04-28 20:20 -19.01859 -45.67666 37005 ft 463 kts 152°
2026-04-28 20:20 -19.07429 -45.64270 36996 ft 463 kts 152°
2026-04-28 20:21 -19.13006 -45.60865 37007 ft 463 kts 152°
2026-04-28 20:21 -19.18556 -45.57476 37001 ft 463 kts 152°
2026-04-28 20:22 -19.24136 -45.54064 36998 ft 463 kts 152°
2026-04-28 20:22 -19.29713 -45.50652 36999 ft 463 kts 152°
2026-04-28 20:23 -19.35284 -45.47240 36998 ft 463 kts 152°
2026-04-28 20:23 -19.40860 -45.43806 36993 ft 463 kts 152°
2026-04-28 20:24 -19.46425 -45.40373 37003 ft 463 kts 152°
2026-04-28 20:24 -19.51954 -45.36960 37004 ft 463 kts 152°
2026-04-28 20:25 -19.57521 -45.33523 36995 ft 463 kts 152°
2026-04-28 20:25 -19.63094 -45.30079 37002 ft 463 kts 152°
2026-04-28 20:26 -19.68659 -45.26637 37012 ft 463 kts 152°
2026-04-28 20:26 -19.74232 -45.23187 37011 ft 463 kts 152°
2026-04-28 20:27 -19.79811 -45.19729 37010 ft 464 kts 152°
2026-04-28 20:27 -19.85380 -45.16277 37017 ft 464 kts 152°
2026-04-28 20:28 -19.90931 -45.12861 37015 ft 464 kts 153°
2026-04-28 20:28 -19.96565 -45.09413 37020 ft 464 kts 153°
2026-04-28 20:29 -20.02128 -45.06002 37021 ft 464 kts 153°
2026-04-28 20:29 -20.07724 -45.02564 37025 ft 465 kts 153°
2026-04-28 20:30 -20.13354 -44.99100 37023 ft 465 kts 153°
2026-04-28 20:30 -20.18918 -44.95674 37024 ft 465 kts 153°
2026-04-28 20:31 -20.24529 -44.92217 37023 ft 465 kts 153°
2026-04-28 20:31 -20.30126 -44.88764 37025 ft 465 kts 153°
2026-04-28 20:32 -20.35728 -44.85307 37023 ft 465 kts 153°
2026-04-28 20:32 -20.41323 -44.81850 37032 ft 465 kts 153°
2026-04-28 20:33 -20.46930 -44.78382 37025 ft 465 kts 153°
2026-04-28 20:33 -20.52506 -44.74862 37040 ft 466 kts 152°
2026-04-28 20:34 -20.58022 -44.71210 37021 ft 467 kts 151°
2026-04-28 20:34 -20.60767 -44.69389 36550 ft 473 kts 151°
2026-04-28 20:34 -20.63580 -44.67526 36205 ft 466 kts 151°
2026-04-28 20:34 -20.66297 -44.65733 35774 ft 463 kts 151°
2026-04-28 20:35 -20.69037 -44.63928 35369 ft 460 kts 151°
2026-04-28 20:35 -20.71751 -44.62142 34969 ft 457 kts 151°
2026-04-28 20:35 -20.74452 -44.60363 34544 ft 455 kts 151°
2026-04-28 20:35 -20.77139 -44.58592 34125 ft 453 kts 151°
2026-04-28 20:36 -20.79821 -44.56826 33677 ft 451 kts 151°
2026-04-28 20:36 -20.82505 -44.55102 33246 ft 448 kts 152°
2026-04-28 20:36 -20.85179 -44.53421 32829 ft 446 kts 152°
2026-04-28 20:36 -20.87851 -44.51747 32425 ft 443 kts 152°
2026-04-28 20:37 -20.90502 -44.50082 32028 ft 441 kts 152°
2026-04-28 20:37 -20.93135 -44.48420 31634 ft 438 kts 151°
2026-04-28 20:37 -20.95751 -44.46764 31243 ft 436 kts 151°
2026-04-28 20:37 -20.98359 -44.45113 30846 ft 435 kts 151°
2026-04-28 20:38 -21.00973 -44.43471 30429 ft 435 kts 151°
2026-04-28 20:38 -21.03586 -44.41838 30021 ft 433 kts 151°
2026-04-28 20:38 -21.06149 -44.40236 29590 ft 431 kts 151°
2026-04-28 20:38 -21.08726 -44.38620 29174 ft 428 kts 151°
2026-04-28 20:39 -21.11279 -44.37003 28774 ft 425 kts 151°
2026-04-28 20:39 -21.13819 -44.35388 28357 ft 423 kts 150°
2026-04-28 20:39 -21.16343 -44.33781 27973 ft 420 kts 151°
2026-04-28 20:39 -21.18845 -44.32188 27581 ft 418 kts 150°
2026-04-28 20:40 -21.21336 -44.30605 27204 ft 415 kts 151°
2026-04-28 20:40 -21.23818 -44.29026 26823 ft 413 kts 150°
2026-04-28 20:40 -21.26281 -44.27447 26443 ft 411 kts 150°
2026-04-28 20:40 -21.28720 -44.25872 26064 ft 409 kts 150°
2026-04-28 20:41 -21.31152 -44.24298 25689 ft 407 kts 150°
2026-04-28 20:41 -21.33570 -44.22733 25304 ft 406 kts 150°
2026-04-28 20:41 -21.35983 -44.21171 24920 ft 404 kts 150°
2026-04-28 20:41 -21.38391 -44.19613 24532 ft 403 kts 150°
2026-04-28 20:42 -21.40794 -44.18058 24154 ft 402 kts 150°
2026-04-28 20:42 -21.43185 -44.16511 23763 ft 401 kts 150°
2026-04-28 20:42 -21.45571 -44.14967 23345 ft 400 kts 150°
2026-04-28 20:42 -21.47955 -44.13425 22939 ft 398 kts 150°
2026-04-28 20:43 -21.50292 -44.11914 22557 ft 395 kts 150°
2026-04-28 20:43 -21.52632 -44.10400 22188 ft 392 kts 150°
2026-04-28 20:43 -21.54962 -44.08893 21810 ft 389 kts 150°
2026-04-28 20:43 -21.57277 -44.07398 21442 ft 386 kts 150°
2026-04-28 20:44 -21.59634 -44.06045 21076 ft 384 kts 155°
2026-04-28 20:44 -21.62044 -44.04812 20709 ft 381 kts 156°
2026-04-28 20:44 -21.64441 -44.03626 20343 ft 379 kts 156°
2026-04-28 20:44 -21.66835 -44.02437 19979 ft 377 kts 156°
2026-04-28 20:45 -21.69203 -44.01246 19605 ft 376 kts 155°
2026-04-28 20:45 -21.71566 -44.00043 19238 ft 375 kts 155°
2026-04-28 20:45 -21.73919 -43.98837 18872 ft 374 kts 155°
2026-04-28 20:45 -21.76261 -43.97633 18487 ft 373 kts 155°
2026-04-28 20:46 -21.78595 -43.96430 18096 ft 371 kts 155°
2026-04-28 20:46 -21.80914 -43.95236 17710 ft 368 kts 155°
2026-04-28 20:46 -21.83195 -43.94061 17321 ft 358 kts 155°
2026-04-28 20:46 -21.85406 -43.92921 16962 ft 348 kts 155°
2026-04-28 20:47 -21.87561 -43.91811 16616 ft 338 kts 155°
2026-04-28 20:47 -21.89654 -43.90732 16289 ft 329 kts 155°
2026-04-28 20:47 -21.91692 -43.89681 15985 ft 327 kts 155°
2026-04-28 20:47 -21.93737 -43.88625 15669 ft 325 kts 155°
2026-04-28 20:48 -21.95779 -43.87572 15356 ft 324 kts 154°
2026-04-28 20:48 -21.97807 -43.86525 15028 ft 323 kts 154°
2026-04-28 20:48 -21.99833 -43.85479 14703 ft 322 kts 154°
2026-04-28 20:48 -22.01850 -43.84437 14386 ft 321 kts 154°
2026-04-28 20:49 -22.03860 -43.83398 14060 ft 321 kts 154°
2026-04-28 20:49 -22.05873 -43.82358 13713 ft 320 kts 154°
2026-04-28 20:49 -22.07880 -43.81320 13354 ft 319 kts 154°
2026-04-28 20:49 -22.09879 -43.80285 13016 ft 318 kts 154°
2026-04-28 20:50 -22.11869 -43.79255 12672 ft 316 kts 154°
2026-04-28 20:50 -22.13179 -43.78577 12460 ft 315 kts 154°
2026-04-28 20:50 -22.15811 -43.77214 12023 ft 312 kts 154°
2026-04-28 20:50 -22.17111 -43.76541 11809 ft 311 kts 154°
2026-04-28 20:51 -22.19054 -43.75533 11499 ft 309 kts 154°
2026-04-28 20:51 -22.20991 -43.74530 11183 ft 308 kts 154°
2026-04-28 20:51 -22.22925 -43.73527 10854 ft 308 kts 154°
2026-04-28 20:51 -22.24855 -43.72526 10458 ft 310 kts 154°
2026-04-28 20:52 -22.26803 -43.71515 10161 ft 308 kts 154°
2026-04-28 20:52 -22.28695 -43.70533 10030 ft 300 kts 154°
2026-04-28 20:52 -22.30548 -43.69572 9851 ft 294 kts 154°
2026-04-28 20:52 -22.32471 -43.68886 9575 ft 291 kts 175°
2026-04-28 20:53 -22.36085 -43.70273 9080 ft 279 kts 228°
2026-04-28 20:53 -22.37107 -43.71999 8827 ft 272 kts 252°
2026-04-28 20:53 -22.37377 -43.73985 8569 ft 265 kts 276°
2026-04-28 20:54 -22.36899 -43.75871 8306 ft 259 kts 298°
2026-04-28 20:54 -22.35858 -43.77413 8103 ft 252 kts 317°
2026-04-28 20:54 -22.34418 -43.78458 7861 ft 249 kts 334°
2026-04-28 20:54 -22.32880 -43.79268 7770 ft 240 kts 334°
2026-04-28 20:55 -22.31389 -43.80045 7804 ft 237 kts 335°
2026-04-28 20:55 -22.29921 -43.80812 7822 ft 239 kts 335°
2026-04-28 20:55 -22.28422 -43.81599 7828 ft 240 kts 335°
2026-04-28 20:55 -22.26905 -43.82360 7826 ft 241 kts 336°
2026-04-28 20:56 -22.25370 -43.83106 7828 ft 243 kts 336°
2026-04-28 20:56 -22.23825 -43.83860 7827 ft 244 kts 336°
2026-04-28 20:56 -22.22275 -43.84620 7824 ft 245 kts 336°
2026-04-28 20:56 -22.20725 -43.85382 7826 ft 246 kts 336°
2026-04-28 20:57 -22.19166 -43.86152 7825 ft 247 kts 336°
2026-04-28 20:57 -22.17597 -43.86913 7832 ft 248 kts 342°
2026-04-28 20:57 -22.15845 -43.86987 7849 ft 264 kts 17°
2026-04-28 20:57 -22.14318 -43.85913 7836 ft 269 kts 51°
2026-04-28 20:58 -22.13554 -43.84068 7850 ft 274 kts 78°
2026-04-28 20:58 -22.13513 -43.82000 7654 ft 282 kts 99°
2026-04-28 20:58 -22.14235 -43.80033 7412 ft 285 kts 124°
2026-04-28 20:58 -22.15649 -43.78605 7190 ft 282 kts 146°
2026-04-28 20:59 -22.17342 -43.77566 6948 ft 279 kts 152°
2026-04-28 20:59 -22.19072 -43.76637 6721 ft 276 kts 153°
2026-04-28 20:59 -22.20794 -43.75726 6485 ft 274 kts 153°
2026-04-28 20:59 -22.22497 -43.74812 6239 ft 273 kts 152°
2026-04-28 21:00 -22.24185 -43.73891 5988 ft 271 kts 152°
2026-04-28 21:00 -22.25854 -43.72968 5749 ft 268 kts 152°
2026-04-28 21:00 -22.27512 -43.72044 5515 ft 269 kts 151°
2026-04-28 21:00 -22.29180 -43.71108 5285 ft 273 kts 151°
2026-04-28 21:01 -22.30866 -43.70159 5045 ft 271 kts 151°
2026-04-28 21:01 -22.32533 -43.69218 4789 ft 269 kts 150°
2026-04-28 21:01 -22.34182 -43.68284 4601 ft 264 kts 150°
2026-04-28 21:01 -22.35787 -43.67376 4642 ft 260 kts 150°
2026-04-28 21:02 -22.37421 -43.66451 4673 ft 270 kts 150°
2026-04-28 21:02 -22.39099 -43.65499 4670 ft 274 kts 151°
2026-04-28 21:02 -22.40792 -43.64540 4665 ft 275 kts 150°
2026-04-28 21:02 -22.42485 -43.63579 4663 ft 274 kts 150°
2026-04-28 21:03 -22.44147 -43.62636 4654 ft 273 kts 150°
2026-04-28 21:03 -22.45842 -43.61675 4669 ft 271 kts 150°
2026-04-28 21:03 -22.47514 -43.60737 4655 ft 270 kts 152°
2026-04-28 21:03 -22.49183 -43.59863 4664 ft 269 kts 153°
2026-04-28 21:04 -22.50872 -43.58994 4657 ft 269 kts 153°
2026-04-28 21:04 -22.52562 -43.58119 4665 ft 269 kts 153°
2026-04-28 21:04 -22.54242 -43.57246 4667 ft 268 kts 152°
2026-04-28 21:04 -22.55930 -43.56366 4667 ft 270 kts 153°
2026-04-28 21:05 -22.57628 -43.55482 4638 ft 271 kts 153°
2026-04-28 21:05 -22.59320 -43.54594 4596 ft 271 kts 153°
2026-04-28 21:05 -22.61019 -43.53706 4350 ft 269 kts 153°
2026-04-28 21:05 -22.62682 -43.52838 4369 ft 263 kts 152°
2026-04-28 21:06 -22.64264 -43.51864 4217 ft 263 kts 136°
2026-04-28 21:06 -22.65404 -43.50346 3968 ft 258 kts 124°
2026-04-28 21:06 -22.66453 -43.48793 3828 ft 251 kts 126°
2026-04-28 21:06 -22.67473 -43.47305 3720 ft 242 kts 124°
2026-04-28 21:07 -22.68442 -43.45848 3624 ft 234 kts 124°
2026-04-28 21:07 -22.69370 -43.44438 3508 ft 227 kts 124°
2026-04-28 21:07 -22.70272 -43.43063 3417 ft 220 kts 124°
2026-04-28 21:07 -22.71140 -43.41740 3294 ft 212 kts 124°
2026-04-28 21:08 -22.71986 -43.40452 3029 ft 208 kts 124°
2026-04-28 21:08 -22.72819 -43.39183 2747 ft 203 kts 124°
2026-04-28 21:08 -22.73609 -43.37983 2479 ft 192 kts 124°
2026-04-28 21:08 -22.74353 -43.36851 2252 ft 177 kts 124°
2026-04-28 21:09 -22.75039 -43.35806 2035 ft 164 kts 124°
2026-04-28 21:09 -22.75672 -43.34842 1856 ft 149 kts 124°
2026-04-28 21:09 -22.76278 -43.33921 1633 ft 150 kts 124°
2026-04-28 21:09 -22.76876 -43.33011 1427 ft 148 kts 124°
2026-04-28 21:10 -22.77468 -43.32111 1232 ft 145 kts 124°
2026-04-28 21:10 -22.78061 -43.31211 1068 ft 149 kts 123°
2026-04-28 21:10 -22.78654 -43.30301 870 ft 147 kts 124°
2026-04-28 21:10 -22.79243 -43.29399 674 ft 147 kts 127°
2026-04-28 21:11 -22.79835 -43.28512 541 ft 146 kts 127°
2026-04-28 21:11 -22.80428 -43.27607 344 ft 147 kts 127°
2026-04-28 21:11 -22.81020 -43.26711 181 ft 146 kts 126°
2026-04-28 21:11 -22.81607 -43.25811 31 ft 142 kts 127°
2026-04-28 21:12 -22.82092 -43.25089 23 ft 89 kts 126°
2026-04-28 21:12 -22.82284 -43.24795 18 ft 21 kts 123°
2026-04-28 21:12 -22.82345 -43.24651 19 ft 20 kts 106°
2026-04-28 21:12 -22.82360 -43.24555 18 ft 12 kts 98°
2026-04-28 21:13 -22.82358 -43.24467 18 ft 12 kts 58°
2026-04-28 21:13 -22.82317 -43.24469 18 ft 7 kts 308°
2026-04-28 21:13 -22.82280 -43.24528 18 ft 13 kts 307°
2026-04-28 21:13 -22.82214 -43.24626 19 ft 19 kts 305°
2026-04-28 21:14 -22.82115 -43.24725 19 ft 20 kts
2026-04-28 21:14 -22.81997 -43.24646 21 ft 20 kts 36°
2026-04-28 21:14 -22.81874 -43.24593 20 ft 19 kts 17°
2026-04-28 21:14 -22.81759 -43.24527 21 ft 19 kts
2026-04-28 21:15 -22.81685 -43.24631 22 ft 18 kts 295°
2026-04-28 21:15 -22.81622 -43.24745 21 ft 17 kts 304°
2026-04-28 21:15 -22.81552 -43.24847 22 ft 17 kts 317°
2026-04-28 21:15 -22.81484 -43.24947 23 ft 16 kts 301°
2026-04-28 21:16 -22.81430 -43.25049 21 ft 15 kts 300°
2026-04-28 21:16 -22.81364 -43.25137 21 ft 15 kts 316°
2026-04-28 21:16 -22.81302 -43.25224 21 ft 14 kts 304°
2026-04-28 21:16 -22.81242 -43.25305 21 ft 14 kts 317°
2026-04-28 21:17 -22.81182 -43.25335 21 ft 6 kts 31°
2026-04-28 21:17 -22.81162 -43.25296 21 ft 6 kts 63°
2026-04-28 21:17 -22.81159 -43.25290 21 ft 0 kts 63°